This is the latest recevied weather packets stored in our database for station/object KC3UTO. If no packets are shown the sender has not sent any weather packets the latest 10 day(s).
| Time | Temp. | Humidity | Pressure | Rain* | Wind** | Luminosity | Snow |
|---|---|---|---|---|---|---|---|
| 1776966836 | 23.33° C | 33% | 1012 hPa | 0 mm | - | 698 W/m² | - |
| 1776966533 | 23.33° C | 33% | 1012.1 hPa | 0 mm | - | 775 W/m² | - |
| 1776966229 | 23.33° C | 33% | 1012.4 hPa | 0 mm | - | 739 W/m² | - |
| 1776965925 | 23.33° C | 37% | 1012.2 hPa | 0 mm | - | 756 W/m² | - |
| 1776965622 | 23.33° C | 32% | 1012.4 hPa | 0 mm | - | 776 W/m² | - |
| 1776965320 | 23.33° C | 34% | 1012.4 hPa | 0 mm | - | 710 W/m² | - |
| 1776965018 | 22.78° C | 37% | 1012.5 hPa | 0 mm | - | 726 W/m² | - |
| 1776964718 | 22.22° C | 38% | 1012.4 hPa | 0 mm | - | 779 W/m² | - |
| 1776964417 | 22.78° C | 36% | 1012.6 hPa | 0 mm | - | 813 W/m² | - |
| 1776964116 | 22.78° C | 36% | 1012.4 hPa | 0 mm | - | 792 W/m² | - |
| 1776963816 | 22.78° C | 35% | 1012.6 hPa | 0 mm | - | 797 W/m² | - |
| 1776963515 | 22.22° C | 36% | 1012.8 hPa | 0 mm | - | 761 W/m² | - |
| 1776963212 | 22.22° C | 36% | 1012.7 hPa | 0 mm | - | 827 W/m² | - |
| 1776962909 | 22.22° C | 37% | 1012.7 hPa | 0 mm | - | 751 W/m² | - |
| 1776962604 | 22.22° C | 39% | 1012.7 hPa | 0 mm | - | 179 W/m² | - |
| 1776962303 | 22.22° C | 41% | 1013 hPa | 0 mm | - | 160 W/m² | - |
| 1776961998 | 22.22° C | 36% | 1013.2 hPa | 0 mm | - | 160 W/m² | - |
| 1776961693 | 22.22° C | 36% | 1013 hPa | 0 mm | - | 155 W/m² | - |
| 1776961390 | 22.22° C | 34% | 1013 hPa | 0 mm | - | 599 W/m² | - |
| 1776961086 | 22.22° C | 36% | 1013.2 hPa | 0 mm | - | 835 W/m² | - |
| 1776960782 | 21.67° C | 38% | 1013.5 hPa | 0 mm | - | 858 W/m² | - |
| 1776960477 | 21.11° C | 36% | 1013.6 hPa | 0 mm | - | 851 W/m² | - |
| 1776960176 | 21.67° C | 38% | 1013.5 hPa | 0 mm | - | 806 W/m² | - |
| 1776959872 | 21.67° C | 38% | 1013.6 hPa | 0 mm | - | 725 W/m² | - |
| 1776959568 | 21.11° C | 39% | 1013.6 hPa | 0 mm | - | 199 W/m² | - |
* Rain latest hour (hover to see other rain measurements)
** Current wind speed in m/s (hover to see current wind gust speed)